カタログに戻る

STARLINK-11340

運用中通信VLEO
NORAD 61690·PAYLOAD·🇺🇸 United States

打ち上げ Oct 30, 2024 から Vandenberg Space Force Base

Loading…

次のパス (今後24時間)

TLE

最新Source: CelesTrak SupGP

元期: Sep 14, 2026, 20:47 UTC

1 61690C 24195D   26257.86645833  .00004815  00000+0  39646-4 0  2574
2 61690  53.1570 173.8676 0001161  93.8838 262.2334 15.69718541    11

AllMySatでSTARLINK-11340をリアルタイム追跡

Download on the App Store